Location: Central Falls
(41.8900°N, 71.3929°W)
Time: 03:06:57
(UTC+00:00)

Vanguard 2 Rocket - Pass Details

Date: 10 December 2023
Orbit: 555 x 3309 km, 32.9° (Epoch: 01 March)

Event Time Altitude Azimuth Distance (km) Brightness Sun altitude
Rises 18:51:09 0° 248° (WSW) 5,718 11.9 18.3°
Reaches altitude 10° 18:54:26 10° 245° (WSW) 5,017 11.8 17.9°
Maximum altitude 19:10:05 62° 170° (S) 3,389 10.4 16.3°
Drops below altitude 10° 19:29:53 10° 96° (E) 6,165 10.8 14.0°
Sets 19:34:27 0° 94° (E) 7,038 11.1 13.5°
